Theta_e
340 343 346 345 348 347 348 348 349 349 349 349 349 349 349 348 348 348 347 347 346 346 345 344 344 344 343 341 341 341 341 344 344 344 344 344 345 348 348 348 347 348 348 347 348 348 347 346 345 344 344 344 344 344 344 344 344 345 345 345 344 343 343 343 342 343 343 344 344 344 344 344 345 344 344 342 341 339 337 337 338 336 336 336 336
340 345 347 348 346 348 348 348 348 348 349 349 349 349 348 348 347 346 346 346 345 345 344 344 343 342 341 342 342 342 342 343 343 343 343 342 343 344 345 345 346 346 346 346 346 345 344 344 345 345 345 345 344 344 344 344 343 344 344 343 342 342 341 341 341 340 340 341 342 344 343 343 343 343 343 342 340 339 336 336 335 334 334 336 335
341 345 346 347 346 348 348 347 347 348 349 349 348 347 347 347 346 346 346 345 344 344 344 343 341 341 341 342 342 342 341 342 342 342 341 341 343 343 343 344 343 344 344 344 344 344 343 344 345 345 345 344 344 344 344 344 343 343 342 342 341 341 341 340 340 339 339 340 339 340 342 343 342 341 341 340 339 338 335 334 334 333 333 335 334
341 343 345 345 344 348 347 347 347 347 348 348 348 347 347 347 346 346 346 345 344 342 341 342 341 342 341 340 341 341 341 342 341 341 341 341 341 341 342 342 343 344 345 345 344 345 346 346 345 345 344 344 344 344 343 343 342 340 340 340 340 339 339 339 338 338 338 339 339 340 337 339 339 339 338 337 336 336 335 334 333 334 334 335 334
341 342 345 345 346 347 348 348 347 348 348 348 347 347 347 347 346 346 346 345 342 341 342 340 339 340 340 342 342 342 341 341 342 342 341 340 340 341 342 343 343 344 344 344 342 342 342 344 344 344 343 342 342 342 341 340 339 338 338 338 338 338 337 337 337 337 337 337 338 337 335 336 338 336 337 336 335 333 334 335 333 332 333 333 333
341 343 342 343 345 348 347 347 347 347 348 348 347 347 346 346 346 345 345 345 344 343 342 342 342 342 342 343 342 342 342 343 342 342 342 340 340 340 341 340 342 343 343 343 343 344 343 343 343 342 342 341 340 340 339 339 338 338 337 337 337 336 337 337 336 336 337 337 336 333 333 335 335 334 335 335 334 333 333 333 333 332 332 332 332
341 342 342 342 344 346 345 347 346 347 348 348 347 346 346 345 345 344 344 344 343 342 340 341 341 343 343 342 341 340 340 340 340 338 338 340 340 340 340 340 341 343 343 343 343 343 343 342 342 343 343 342 340 339 339 338 338 337 337 337 336 336 336 336 336 336 338 334 332 332 331 333 334 334 333 332 333 333 332 333 332 332 332 331 331
342 342 342 343 345 345 345 348 347 348 348 348 347 346 345 345 344 343 343 343 342 339 336 336 343 342 342 342 341 340 340 341 341 341 340 340 339 339 339 339 340 342 343 342 343 343 343 343 344 343 342 341 340 339 339 338 337 337 337 336 336 336 336 335 335 335 335 331 334 332 332 332 333 333 333 332 331 332 332 331 331 331 331 330 330
339 340 341 343 345 343 344 347 347 347 348 347 346 346 346 345 343 342 342 343 341 339 337 341 341 342 340 337 336 335 336 336 337 339 339 338 338 338 338 338 338 339 341 341 342 343 343 342 342 343 343 342 341 339 338 337 336 336 336 336 336 336 335 334 334 336 331 331 331 332 332 332 331 330 332 332 331 330 331 330 330 330 330 328 329
338 341 341 342 346 342 345 346 347 347 347 347 346 346 345 344 343 342 341 341 339 338 340 340 339 339 337 336 340 340 339 340 340 339 338 338 339 339 339 339 339 338 339 342 343 342 341 341 341 341 341 341 340 339 337 336 336 335 336 336 336 335 334 333 335 332 329 330 330 331 332 335 332 330 331 332 332 330 329 332 330 330 330 330 328
339 340 342 344 347 341 347 347 347 346 346 346 345 345 344 343 343 341 341 340 339 339 340 340 339 341 341 342 342 342 342 341 341 340 340 340 340 340 340 339 338 338 340 340 342 342 341 341 340 340 341 340 340 338 337 336 336 335 335 336 335 335 334 334 333 330 331 330 330 330 332 333 331 331 333 331 332 330 332 331 329 330 329 329 329
338 340 342 344 347 341 346 346 346 346 346 345 345 344 344 343 342 341 340 338 337 339 338 339 341 343 342 341 341 341 341 341 340 340 339 338 338 338 339 338 338 339 338 340 341 341 342 341 340 340 340 339 339 338 337 336 336 336 335 336 335 334 334 334 330 330 331 329 330 331 331 331 331 331 333 332 330 330 328 330 330 329 330 329 330
338 339 342 345 347 339 344 345 345 346 346 345 344 343 342 341 340 339 338 337 338 339 338 340 340 340 341 340 339 339 338 338 338 338 338 337 337 337 337 337 337 338 338 339 340 341 341 341 341 340 340 339 338 338 338 337 336 335 335 335 334 333 333 331 330 330 330 331 330 330 330 332 334 333 333 331 330 330 330 330 330 330 330 330 330
337 339 342 343 345 344 339 343 345 345 346 345 344 343 342 340 339 339 338 339 339 340 342 342 341 341 340 338 337 337 337 336 336 337 336 334 335 335 336 336 336 337 337 337 338 339 339 339 340 340 339 339 338 338 337 336 336 335 335 334 333 332 329 330 330 331 330 330 330 330 330 330 332 334 333 332 333 334 330 330 330 329 329 330 330
336 340 341 342 344 345 341 340 342 342 344 344 344 343 342 340 339 339 338 337 337 337 338 341 341 341 340 339 338 337 336 337 337 334 333 337 337 337 338 339 339 338 338 338 337 338 339 339 339 339 337 338 338 337 337 337 336 335 334 333 332 331 327 331 331 331 330 330 330 330 331 330 330 334 333 333 335 335 330 330 330 329 328 328 330
339 340 341 341 342 344 346 341 335 336 340 341 342 341 341 340 340 339 338 340 340 340 338 342 342 342 341 341 340 338 335 335 335 335 335 336 336 335 335 336 336 336 336 336 336 336 337 337 337 337 336 336 337 336 336 336 335 334 333 332 330 329 327 329 332 332 330 331 331 330 330 330 330 334 334 334 335 334 332 329 330 330 329 329 329
338 340 340 340 343 342 342 344 339 331 332 335 337 338 339 339 340 340 340 342 342 342 341 341 341 341 340 340 340 339 338 338 338 338 337 337 337 336 336 337 337 337 336 336 337 336 337 336 336 336 336 336 336 336 335 334 333 331 329 329 327 327 326 327 334 332 331 332 332 331 330 331 331 334 334 335 335 335 333 332 330 329 329 329 329
339 339 338 339 341 341 341 343 344 344 343 336 333 336 338 339 338 339 341 341 341 341 340 340 340 340 340 339 339 339 339 338 337 336 336 336 336 335 334 334 335 335 335 334 335 335 335 335 334 334 334 334 334 334 333 332 331 328 328 325 325 324 325 326 333 332 332 333 331 332 331 332 333 334 334 335 335 336 336 335 334 333 333 332 329
337 338 338 338 338 340 341 342 342 342 343 342 341 340 333 336 337 337 338 338 338 338 338 336 337 337 335 335 335 334 334 334 336 336 335 335 334 335 335 334 335 334 334 334 334 334 334 334 333 333 333 332 331 331 332 331 329 327 324 323 322 322 323 329 331 331 331 329 329 331 331 330 333 334 334 334 335 336 337 336 335 334 334 334 332
336 336 337 338 338 338 340 340 341 341 341 342 341 341 333 330 333 334 334 335 335 334 333 331 331 329 329 330 330 334 331 333 326 332 330 330 327 330 334 335 335 334 334 334 334 334 334 334 333 332 331 330 329 328 327 328 328 326 323 320 321 321 329 329 331 330 329 329 329 330 329 330 332 333 334 335 335 337 337 336 335 335 335 335 333
333 335 336 336 338 338 338 338 339 339 340 340 340 340 339 331 330 328 329 331 331 330 328 324 324 325 327 326 329 336 337 336 335 335 327 331 322 323 332 334 334 333 334 334 334 333 333 333 332 331 329 326 324 323 322 326 326 324 321 318 317 328 328 327 328 327 328 329 329 330 327 329 332 332 333 335 336 337 336 335 335 335 335 334 334
330 332 334 335 336 337 338 337 338 338 338 339 338 338 339 335 339 339 338 333 328 327 333 336 334 336 323 334 335 335 335 335 334 333 334 333 328 320 325 330 331 330 330 330 331 330 331 331 329 328 328 326 322 333 330 322 320 321 318 315 332 327 328 328 328 326 327 327 326 328 327 329 331 333 333 333 335 335 334 334 334 334 335 335 334
327 329 332 333 335 335 336 336 337 337 338 338 337 337 336 336 336 337 337 331 334 337 336 336 336 336 336 334 331 334 335 334 332 329 329 319 323 320 323 325 325 325 326 326 326 326 327 327 325 325 324 322 334 331 331 331 332 319 318 331 329 329 330 330 329 329 329 329 328 325 325 328 330 332 332 333 333 333 333 332 333 334 334 334 333
327 329 330 332 334 335 335 336 337 337 336 335 335 335 335 335 334 335 335 334 334 334 335 335 335 335 335 333 332 334 334 333 323 322 325 333 329 319 318 321 322 320 319 327 323 323 322 323 321 321 327 328 331 329 329 329 329 329 330 329 329 330 330 329 328 328 329 330 330 323 324 327 329 330 332 333 333 334 333 333 333 333 334 333 333
328 329 329 329 331 333 334 335 336 336 336 334 334 334 334 333 332 333 333 333 333 332 331 332 334 335 335 333 333 333 333 332 333 333 332 332 332 333 332 332 332 332 321 332 331 333 329 331 331 330 330 330 330 329 329 328 329 330 329 329 329 330 329 328 328 327 328 329 330 321 322 324 327 330 331 333 333 333 333 333 334 334 333 333 333
329 327 327 329 330 330 334 334 334 335 335 334 334 333 333 332 332 331 332 333 333 331 330 330 332 333 334 333 333 333 333 332 332 332 332 332 332 331 331 331 331 331 330 330 330 331 331 331 331 331 330 331 330 330 330 328 328 328 328 329 328 328 328 327 328 328 329 330 331 319 321 322 324 328 330 333 333 333 333 333 333 334 333 333 334
328 328 329 329 329 330 331 334 333 333 334 334 334 333 332 332 332 331 331 331 332 331 331 330 330 332 333 334 332 330 331 330 331 331 331 331 330 330 330 330 331 330 330 330 330 331 331 330 330 331 331 331 331 331 330 330 329 329 329 329 329 328 328 328 328 329 330 330 327 319 320 320 322 325 328 331 333 333 333 333 333 334 333 333 334
331 329 329 329 329 329 330 331 332 333 333 333 332 332 332 331 330 331 332 330 330 330 331 332 333 331 331 330 329 330 330 330 331 331 331 331 331 331 331 331 331 331 331 331 332 331 331 330 331 332 331 331 331 330 330 329 329 329 328 329 329 328 329 329 329 330 330 331 331 322 318 319 320 323 326 329 331 332 332 332 333 333 333 334 333
330 331 330 330 330 330 329 329 330 332 332 332 331 331 331 331 331 330 330 328 331 331 332 332 332 332 332 333 332 331 331 332 332 332 332 331 331 331 330 331 331 332 331 331 331 331 331 331 331 331 331 331 330 331 329 330 330 329 328 328 328 328 329 329 329 329 329 329 329 324 318 319 320 322 324 326 329 330 331 331 332 332 333 333 333
331 332 331 331 331 330 329 329 329 330 331 331 331 330 330 329 329 330 331 329 331 332 333 332 333 333 332 333 334 333 333 332 332 332 331 331 331 331 330 330 330 331 331 331 331 330 330 330 331 331 330 330 330 330 329 329 329 329 328 327 327 327 329 328 329 328 328 328 328 327 318 318 319 321 322 324 326 328 328 329 331 331 332 332 331
332 331 332 332 332 330 329 329 329 330 330 329 330 329 330 330 330 331 331 330 331 331 332 332 333 333 333 333 334 334 334 334 333 332 331 331 331 331 331 331 330 331 331 331 331 331 331 330 330 329 329 329 328 329 328 328 328 327 327 328 328 329 329 329 329 328 327 328 327 327 327 318 319 319 320 322 324 325 326 328 329 329 330 332 331
332 331 332 333 332 331 330 330 330 329 329 329 330 329 329 330 330 330 330 331 331 330 331 332 330 332 334 333 333 334 334 334 334 333 332 331 331 331 331 331 331 331 332 331 331 332 331 331 331 331 330 329 328 327 328 327 327 327 328 328 329 329 328 329 328 328 327 327 326 326 326 325 318 318 318 319 322 322 324 326 326 327 329 329 330
333 333 334 334 332 331 330 330 330 329 328 329 330 329 330 329 329 330 330 331 330 330 331 332 332 333 334 334 334 335 334 334 334 334 332 332 331 331 331 331 331 332 331 332 332 332 330 330 329 331 329 329 328 327 328 327 326 327 328 329 329 329 329 329 328 328 326 326 325 325 326 326 325 318 317 317 319 320 322 324 324 324 325 325 326
332 333 334 333 334 333 332 331 330 329 329 330 330 330 330 330 330 330 330 330 330 329 331 331 332 332 333 334 335 335 334 334 335 334 333 332 332 331 331 331 332 332 331 331 330 330 329 329 329 328 325 327 326 326 325 326 326 327 328 329 329 329 329 328 327 326 326 324 324 325 325 324 323 323 323 317 317 317 319 322 322 322 322 322 322
332 333 333 334 334 334 333 332 330 330 328 329 330 330 330 330 330 330 330 330 330 330 330 331 331 331 332 333 334 334 334 334 335 334 332 332 331 330 329 330 331 332 330 330 330 330 330 329 327 326 327 326 325 326 325 326 326 327 328 328 328 329 329 328 327 325 323 324 324 325 324 322 322 322 321 320 314 316 317 318 320 320 319 319 321
331 332 333 334 333 334 334 333 332 330 329 329 331 331 330 331 331 328 332 332 331 331 331 330 329 330 332 334 335 335 334 334 334 334 333 332 330 330 330 331 332 331 330 329 330 329 328 329 329 328 325 325 325 325 326 326 326 326 328 328 328 328 328 327 326 324 323 324 324 324 323 322 321 319 317 316 315 314 315 315 317 317 317 317 319
331 332 332 332 333 334 333 333 332 331 331 330 331 332 332 332 332 333 334 334 333 333 333 332 331 331 331 333 335 335 335 335 334 333 333 332 331 331 330 332 333 331 329 330 329 330 329 329 328 328 328 325 325 325 326 325 325 325 326 327 328 328 327 326 324 322 324 324 323 322 321 322 320 313 315 314 314 312 312 314 315 315 314 314 316
332 332 332 332 331 333 333 333 334 333 332 332 331 332 332 333 334 335 334 334 335 335 335 334 333 332 332 332 334 334 334 335 334 333 333 333 333 331 332 332 331 330 328 330 329 330 330 328 327 328 328 326 325 325 325 324 325 325 325 326 326 326 325 325 323 319 322 322 320 319 320 317 316 315 314 314 312 311 312 311 312 312 311 312 314
331 331 332 332 332 332 332 332 332 334 333 333 333 333 332 333 333 334 334 334 335 335 334 334 334 334 333 334 335 334 334 336 335 333 333 332 332 332 332 332 331 329 328 329 329 328 327 329 329 328 328 328 326 325 324 325 324 324 324 323 325 325 325 323 323 321 321 321 318 319 319 316 313 314 312 312 309 311 311 312 311 312 312 311 313
331 331 331 331 331 331 331 332 331 332 333 333 332 331 331 331 330 331 331 331 332 331 332 332 334 334 335 334 334 334 334 334 334 334 333 332 331 331 331 333 331 329 328 328 329 328 328 328 328 328 327 327 323 323 325 325 324 323 322 322 324 322 323 322 322 320 320 321 318 315 313 313 311 311 310 310 310 310 310 310 309 310 310 310 311
331 331 331 331 331 330 330 330 331 331 332 332 331 330 329 329 330 329 329 331 331 333 332 332 334 335 336 335 334 333 334 334 334 334 333 329 331 331 332 332 332 330 329 329 330 330 329 329 327 325 324 324 323 323 324 324 322 320 321 321 320 320 321 322 321 318 320 321 317 312 312 310 310 309 308 308 309 309 309 309 309 309 309 310 308
328 329 330 331 331 331 331 331 331 331 332 332 332 331 331 331 330 329 329 330 331 331 332 333 334 335 336 335 335 334 335 334 333 335 333 332 331 331 331 331 332 330 330 331 330 325 327 326 325 323 322 322 322 323 323 322 319 315 314 315 316 318 319 320 319 315 320 320 315 313 312 309 309 308 307 307 307 307 307 308 309 309 309 308 307
328 328 329 330 331 331 332 332 333 332 332 333 332 331 332 333 333 333 332 332 335 336 336 335 335 335 336 336 335 335 335 334 334 334 333 333 332 332 331 331 332 331 329 328 328 327 327 325 323 323 320 322 321 321 321 321 317 317 317 314 312 312 316 318 319 315 316 316 312 311 311 309 309 309 307 305 304 305 307 307 308 309 308 308 306
327 328 328 328 329 330 331 332 332 333 333 333 331 334 333 334 335 335 335 335 334 335 336 337 336 335 335 336 336 335 334 333 334 334 333 334 333 331 331 331 331 331 329 329 328 327 327 325 323 323 323 320 320 319 320 321 318 315 311 309 310 310 307 310 308 312 312 312 310 309 309 308 306 304 304 303 304 305 306 307 307 307 308 307 307
327 328 328 328 328 329 331 332 332 333 333 333 332 333 333 332 333 333 334 332 330 332 331 331 332 333 333 333 334 335 335 334 334 334 333 333 333 332 332 331 331 331 330 329 328 327 327 326 325 324 323 322 320 320 318 319 318 318 314 312 310 308 303 306 306 309 309 306 309 311 310 307 302 301 302 303 304 305 305 306 306 307 307 306 305
326 328 329 329 329 329 330 331 332 333 333 334 333 332 331 330 329 326 324 325 325 326 325 327 328 328 329 332 334 335 335 335 334 335 334 333 332 332 332 331 331 330 329 328 327 325 324 323 324 323 322 323 321 319 315 316 318 317 317 315 313 309 306 305 306 296 304 305 304 304 305 304 301 301 302 302 302 303 304 304 305 305 306 306 306
325 327 329 329 329 329 330 330 331 331 333 333 333 331 331 331 329 328 327 326 326 327 330 332 332 331 331 332 334 336 336 334 334 333 333 333 332 332 331 330 329 328 325 324 323 323 323 323 323 323 322 321 319 316 315 315 315 315 315 314 313 313 312 307 302 301 295 300 303 300 301 303 300 300 300 300 300 301 303 303 304 304 303 303 303
324 327 328 329 328 329 329 330 330 330 332 333 333 332 331 330 329 329 328 328 328 329 330 332 333 333 332 332 333 334 334 333 333 333 332 332 331 330 329 327 326 325 323 324 324 323 322 321 322 322 321 320 318 316 315 315 312 312 312 311 310 310 310 309 308 296 293 292 296 302 304 302 300 299 299 299 299 300 301 302 303 302 301 301 302
322 324 326 328 329 329 329 329 329 329 330 331 331 331 330 331 330 329 328 329 330 331 331 331 331 333 333 332 331 329 330 331 331 331 330 330 328 329 328 326 325 323 323 323 322 323 322 321 320 320 319 318 316 315 314 313 314 312 308 307 307 306 306 305 303 298 296 297 296 296 296 299 300 301 299 299 299 300 300 301 301 301 300 300 302
319 323 325 326 327 328 327 327 328 328 329 330 330 331 331 330 330 330 329 328 329 330 331 330 330 332 331 330 328 326 324 324 327 329 329 329 329 329 327 326 326 322 319 321 321 321 320 318 318 318 318 316 315 314 313 313 312 310 309 306 304 305 304 303 302 297 300 298 292 293 295 295 293 295 299 298 297 298 300 301 300 300 299 300 303
316 318 320 322 325 326 326 326 327 328 329 329 329 329 330 330 330 330 329 329 329 329 328 327 328 328 328 327 326 324 322 322 323 324 326 326 326 326 326 326 325 322 321 321 320 319 316 315 312 313 314 314 312 310 309 309 307 306 305 305 304 304 301 298 299 298 297 295 294 293 294 295 293 293 297 298 297 298 299 300 300 299 299 301 301
Wind_Speed
8 9 7 3 4 7 7 8 8 9 10 10 11 12 12 12 12 13 13 13 13 13 13 13 14 15 14 13 12 12 12 14 13 14 14 14 15 17 17 17 18 18 18 18 19 19 19 18 18 18 18 18 18 18 18 18 18 18 18 18 19 18 18 18 17 17 16 17 18 17 18 17 18 18 17 17 17 17 16 16 15 10 10 12 15
12 9 7 8 1 7 8 8 8 9 9 10 11 12 12 12 12 13 13 12 12 12 12 13 15 14 14 14 14 15 14 14 15 15 14 13 13 14 15 16 17 18 18 18 18 18 17 17 18 18 18 18 18 17 17 17 18 17 18 17 17 17 17 16 15 14 14 14 15 17 18 17 17 17 17 17 16 17 15 16 15 10 9 14 15
12 10 7 7 1 6 7 7 7 8 9 10 12 11 11 12 12 12 12 12 12 11 12 13 12 12 14 15 15 14 14 15 15 14 13 13 13 14 15 15 16 16 17 16 17 16 16 17 18 18 18 17 17 18 17 18 17 17 17 17 16 16 15 14 14 13 12 11 9 10 14 17 17 17 16 16 16 15 15 14 14 13 10 15 14
11 9 8 7 3 4 8 8 8 8 9 9 10 11 11 11 12 12 12 12 12 12 11 12 13 15 13 14 14 14 14 14 15 15 14 13 14 15 15 15 16 17 17 17 17 17 17 18 19 17 17 17 18 17 18 17 17 16 16 16 15 15 14 14 13 12 11 9 8 6 7 9 12 16 15 14 15 15 14 14 14 15 13 12 14
10 9 8 9 10 10 9 9 9 9 9 10 10 11 11 11 12 12 12 12 12 11 11 13 12 12 14 14 13 14 14 14 14 14 14 13 14 14 15 15 15 16 16 17 15 14 16 17 18 17 17 17 17 16 16 16 16 15 15 15 14 14 14 13 12 11 9 8 7 8 8 8 9 15 15 15 14 12 13 14 15 14 14 13 13
9 8 8 8 9 10 8 9 9 10 10 10 10 11 11 10 10 13 12 12 12 11 12 13 13 13 14 15 15 14 15 15 15 15 14 14 13 14 14 14 16 16 16 16 16 15 15 15 16 17 16 16 15 15 15 15 15 15 14 14 14 13 13 13 11 9 7 3 7 7 8 8 8 9 16 14 14 12 14 15 15 14 14 14 12
9 7 8 8 7 8 7 8 9 10 11 11 11 10 10 9 10 11 12 13 12 12 11 13 14 16 16 15 15 14 13 13 13 14 14 14 13 14 14 14 14 15 15 15 16 15 15 14 14 16 16 15 15 15 14 14 14 13 13 13 13 13 12 11 10 10 8 8 7 7 7 9 9 7 15 13 14 14 13 13 13 13 13 13 14
7 6 7 7 6 8 6 6 9 10 12 12 12 11 11 10 11 11 12 13 12 11 10 9 15 14 13 15 15 13 14 14 14 14 14 13 12 11 13 13 14 15 15 15 15 15 14 15 14 15 16 15 14 14 14 13 13 13 12 12 12 11 10 9 7 5 7 8 8 8 7 8 8 7 12 12 14 15 13 12 12 12 13 14 11
7 7 7 6 7 7 5 7 10 11 13 12 11 11 12 12 11 10 11 10 11 11 11 13 14 14 13 12 13 12 12 13 14 15 14 13 12 12 13 11 12 14 14 13 14 15 14 14 15 14 15 15 13 13 13 13 12 12 12 11 11 10 9 7 7 6 8 8 9 9 9 7 8 8 11 11 12 13 13 11 10 12 13 12 11
7 6 6 6 7 5 4 7 9 11 13 12 11 12 13 12 10 10 10 11 11 10 12 11 11 11 12 11 14 13 13 13 13 13 13 14 13 12 11 11 11 12 13 14 14 13 13 13 13 13 14 14 13 12 12 12 12 11 11 11 10 9 7 5 2 10 9 9 9 10 9 9 8 8 11 11 12 12 7 8 11 11 9 11 12
8 7 6 7 9 5 5 8 9 10 12 11 12 13 13 12 11 10 10 10 11 11 12 11 11 12 13 13 13 14 14 14 14 14 14 14 14 12 11 11 11 12 13 13 13 13 13 13 13 13 12 12 12 11 11 11 11 11 10 10 9 8 7 8 5 8 9 9 9 9 8 7 6 8 12 11 10 10 6 10 12 13 13 14 13
8 7 7 8 9 5 6 6 10 11 10 10 12 13 13 11 11 10 10 10 9 11 10 10 13 14 13 13 13 14 13 14 13 13 13 13 13 13 12 11 11 11 11 13 13 12 14 14 13 12 12 11 11 10 10 10 10 10 10 9 9 8 8 8 7 7 8 9 9 7 8 9 9 8 11 10 9 7 8 10 13 13 13 13 14
9 8 8 9 10 7 6 7 9 10 10 11 12 12 13 12 10 9 9 9 9 11 10 9 9 11 12 12 12 12 12 12 13 13 13 12 12 12 12 11 11 11 12 13 12 13 13 13 13 12 12 11 10 10 10 10 9 9 9 9 8 7 6 8 8 8 8 8 7 8 8 7 9 10 10 8 7 8 8 8 11 11 12 12 13
10 9 8 8 9 8 8 8 8 8 8 10 11 12 13 13 11 9 9 10 11 12 11 11 9 10 11 12 11 11 11 12 12 12 11 11 12 12 11 10 10 10 10 11 12 11 12 12 13 12 11 11 10 10 10 10 10 9 9 9 9 7 9 0 8 8 7 7 7 7 7 7 8 11 9 8 8 10 6 6 9 8 9 10 12
10 10 9 8 9 10 9 8 8 6 7 9 10 10 11 11 10 10 11 10 9 8 10 11 9 9 10 12 12 12 11 11 12 10 11 12 12 11 12 11 11 11 10 10 10 11 11 12 12 12 11 11 11 11 11 11 10 10 10 10 9 8 11 6 6 6 7 6 6 6 6 6 10 11 9 9 10 9 4 4 7 6 7 7 10
9 9 9 9 9 9 9 8 7 7 8 8 9 9 10 11 10 11 11 10 10 10 8 12 11 11 11 11 13 13 12 11 11 10 12 12 11 10 10 10 10 10 9 10 10 10 11 11 11 11 11 10 11 11 11 11 10 10 10 10 8 9 8 9 6 6 6 6 6 6 5 5 10 13 10 11 10 9 5 1 8 7 7 8 8
9 9 8 8 8 8 8 10 8 8 8 10 9 9 9 12 10 10 11 11 12 12 12 12 12 11 11 13 12 12 12 12 12 12 12 12 11 11 11 11 11 11 10 10 10 10 10 10 11 10 10 10 10 11 10 9 9 9 9 7 8 7 7 9 5 5 5 6 5 5 5 6 10 12 12 11 11 11 10 8 5 4 5 6 6
9 9 9 9 8 8 8 9 10 10 9 9 9 9 8 10 10 10 11 10 11 12 11 11 12 11 11 10 10 10 12 12 12 11 11 10 10 10 10 9 10 10 10 9 10 10 10 10 10 10 10 10 9 9 9 8 8 8 6 6 6 5 5 7 5 5 5 4 5 5 6 8 11 11 11 12 11 11 11 11 10 11 11 11 5
9 9 8 8 8 8 9 9 9 9 10 8 8 8 9 9 11 11 11 10 9 10 10 10 10 11 9 10 10 10 11 10 10 10 9 8 7 8 8 9 9 9 9 9 9 10 10 10 9 10 9 9 9 8 7 7 7 6 6 6 5 4 5 4 5 5 4 4 5 5 6 9 10 11 12 13 12 12 12 11 11 11 11 11 9
8 9 9 7 7 8 8 8 8 8 8 9 9 9 9 10 11 11 10 10 9 8 8 9 9 9 10 10 10 10 9 8 9 8 9 9 9 8 7 9 9 9 9 9 9 9 10 9 8 8 7 7 7 6 7 7 6 5 5 5 5 7 3 4 5 4 4 4 4 5 7 8 10 11 12 13 13 13 13 13 13 13 12 12 11
7 9 8 8 8 8 8 7 8 9 8 8 8 9 8 11 9 10 10 9 10 9 9 9 9 8 8 8 6 6 6 5 5 6 6 6 8 8 9 10 10 9 10 10 10 9 8 7 7 6 6 5 4 6 6 4 4 4 4 3 6 3 4 4 4 4 5 5 5 5 7 8 10 12 12 13 14 14 14 14 14 14 14 12 12
8 8 9 9 8 8 9 8 8 9 8 7 6 6 7 7 8 8 7 8 8 9 7 6 7 6 4 4 4 4 4 4 5 4 4 4 7 8 8 9 9 8 9 8 8 7 6 6 5 5 4 3 2 1 3 4 3 2 1 4 4 4 4 4 5 5 5 5 6 6 8 10 11 13 13 13 13 15 15 14 15 15 15 15 13
8 8 8 10 8 7 8 9 8 8 8 7 6 6 7 5 6 6 6 6 7 6 6 5 5 5 4 3 3 3 3 3 3 3 3 6 6 7 7 7 8 7 6 6 6 5 5 5 4 3 2 2 1 2 2 2 1 5 6 2 4 4 4 5 5 5 5 6 6 7 9 11 12 13 13 14 14 14 14 14 14 14 15 15 15
8 8 8 8 9 7 8 8 9 9 8 7 6 6 5 5 4 5 5 6 5 4 4 5 5 5 4 3 3 3 3 3 4 5 4 3 4 5 5 5 5 5 3 1 2 3 1 3 3 2 4 1 2 2 3 2 2 3 3 4 4 4 5 6 6 6 6 5 4 6 8 11 12 13 13 14 14 14 15 15 15 14 14 15 15
8 7 7 7 10 9 7 8 8 8 8 7 6 6 5 5 4 4 5 4 4 3 4 4 5 5 4 3 3 3 2 2 2 1 1 2 1 1 1 1 1 2 2 0 0 1 2 1 1 1 2 2 3 3 3 3 2 2 3 4 5 6 6 6 7 7 6 5 4 4 7 10 12 13 13 13 14 14 14 15 15 15 15 15 15
8 8 8 7 9 9 9 7 7 8 8 6 6 5 6 5 5 5 5 4 4 3 3 4 4 5 4 4 3 3 2 2 2 1 1 1 1 1 1 1 0 1 0 0 0 1 1 0 1 2 2 2 2 3 2 3 3 4 5 6 6 6 7 7 7 6 6 6 5 5 6 9 11 12 13 13 13 14 14 14 14 15 15 15 15
8 7 7 7 8 8 10 8 7 7 8 6 6 5 6 5 5 5 5 4 4 4 4 3 4 4 4 4 4 3 2 2 2 1 1 1 0 0 1 1 0 1 1 0 0 0 0 1 1 2 2 2 2 3 2 2 2 3 4 5 6 6 7 7 6 7 7 7 5 3 5 8 10 11 12 13 13 13 13 13 13 14 14 14 15
7 8 8 7 8 9 9 10 8 7 7 7 6 6 6 5 5 5 4 4 4 4 4 3 3 4 4 4 3 3 3 2 2 2 1 1 1 0 0 1 0 0 0 0 0 0 0 1 1 2 2 2 2 3 3 2 2 2 4 4 5 6 6 6 7 6 6 5 5 6 6 6 9 10 11 12 12 13 13 13 14 14 14 14 15
11 9 7 8 9 8 9 10 9 8 7 7 7 6 6 6 6 6 6 5 5 4 4 5 4 4 3 3 4 4 3 3 2 2 1 1 1 1 1 0 0 0 1 1 1 1 0 1 1 2 3 3 3 3 4 4 4 5 5 5 5 6 6 6 6 5 5 5 4 5 5 5 8 9 10 11 12 13 13 14 15 15 15 15 15
12 11 9 7 8 9 9 10 10 10 9 8 7 7 6 6 6 6 6 6 6 5 5 5 4 4 4 4 4 4 3 3 2 2 2 2 1 2 2 1 1 0 1 1 0 1 1 1 2 3 4 4 5 4 4 5 6 6 6 6 5 6 6 5 5 5 4 4 4 4 4 4 6 9 10 11 11 12 13 14 14 15 15 15 15
12 11 10 9 8 9 9 10 10 10 9 9 8 7 6 6 6 5 6 6 7 6 5 5 4 4 4 4 4 4 3 2 2 2 2 2 2 2 2 1 2 1 1 1 0 1 1 2 3 4 5 5 6 5 5 6 5 5 5 6 6 6 6 5 4 4 4 4 4 4 4 2 4 6 8 9 10 11 13 13 14 15 15 15 16
12 12 10 9 9 10 10 10 10 10 9 9 7 6 6 6 6 5 5 6 6 6 5 4 5 5 5 5 5 5 4 3 3 2 3 3 2 2 1 1 1 1 1 1 1 1 2 3 2 2 3 5 6 6 5 5 5 4 5 6 5 5 5 4 4 4 4 4 3 3 3 4 2 2 4 7 9 10 11 13 14 14 15 15 15
10 12 11 10 11 11 10 10 10 10 11 9 7 7 6 6 6 6 5 5 5 5 5 5 5 5 5 6 5 5 4 4 4 4 3 3 2 2 2 1 1 1 1 1 2 2 3 3 4 2 3 4 5 5 4 4 4 5 5 5 4 4 4 4 4 4 4 3 3 4 4 4 4 2 3 3 7 10 12 13 14 14 15 15 14
10 10 11 12 10 7 8 8 9 10 11 8 7 7 7 6 6 6 5 5 5 5 5 5 5 5 5 6 6 5 5 4 4 4 4 3 3 2 2 2 2 1 2 2 3 3 4 4 4 5 4 5 5 5 4 4 5 5 5 4 4 4 5 4 5 4 3 4 3 4 4 4 5 5 6 2 5 8 11 12 13 13 14 15 15
11 11 12 13 12 10 8 8 10 11 11 9 8 7 6 6 6 5 5 6 5 5 5 5 5 5 5 5 6 5 6 5 5 4 5 4 4 4 4 4 3 3 4 4 4 3 4 4 4 5 5 4 3 3 3 5 5 6 6 4 5 5 5 4 4 3 4 4 3 4 4 5 5 6 6 5 4 8 9 11 12 12 14 15 15
14 12 11 12 13 13 11 10 11 12 12 10 8 7 7 6 5 6 5 7 5 6 6 6 5 5 5 5 6 6 5 5 5 4 4 5 5 5 4 3 3 3 4 2 2 3 3 3 3 4 4 3 3 3 4 4 5 6 6 5 5 5 5 4 3 3 4 4 4 4 4 5 6 5 6 6 6 5 7 7 9 10 12 14 14
15 14 13 12 12 13 11 13 13 13 12 11 10 8 7 7 7 6 6 6 5 6 5 5 5 5 5 5 5 5 6 5 5 5 4 4 4 5 4 4 3 3 3 2 2 2 2 3 3 2 3 4 4 4 5 4 5 6 6 5 5 4 4 3 3 3 3 4 4 4 4 5 5 6 6 6 6 6 5 4 5 5 8 12 13
15 15 14 14 14 12 12 12 12 12 11 11 11 9 7 7 6 5 6 6 5 4 5 5 6 6 6 6 6 6 6 6 5 5 5 5 5 5 5 5 4 4 3 3 3 3 3 3 4 3 4 4 4 5 5 5 5 6 6 5 5 4 3 2 2 2 4 4 4 5 4 5 5 6 6 6 6 6 6 7 6 4 7 9 12
14 16 15 14 12 12 10 10 12 12 11 11 11 10 9 8 7 7 8 8 7 7 5 4 5 6 6 6 6 5 5 6 6 6 5 5 5 6 6 6 5 4 4 4 3 1 2 3 5 4 2 3 4 3 2 4 5 5 6 6 5 3 1 2 1 3 3 3 4 3 4 5 6 6 7 6 6 6 7 7 6 6 6 9 11
14 13 16 15 14 13 11 11 12 12 10 10 10 10 9 8 8 8 7 7 7 6 6 6 6 6 6 6 6 6 6 6 7 7 6 6 6 6 6 6 6 6 6 6 5 4 5 5 5 4 5 3 1 2 3 4 5 6 5 4 2 2 2 1 1 3 3 2 4 4 5 5 6 7 7 6 5 6 6 6 6 6 7 8 8
16 15 15 16 16 14 13 13 11 12 10 9 9 9 10 9 8 9 9 8 8 8 7 7 6 7 7 7 6 6 7 7 7 7 7 6 6 5 6 7 7 6 6 6 5 5 3 4 3 2 3 3 1 1 1 3 4 5 4 2 0 2 2 2 2 4 2 2 4 4 4 5 6 7 7 6 5 6 6 6 6 6 6 6 7
16 17 18 17 16 15 14 13 11 12 12 12 10 10 10 10 8 8 7 7 8 9 9 9 10 6 8 7 7 7 8 7 8 8 7 7 7 7 7 6 6 5 4 3 5 4 3 3 2 2 2 3 2 1 2 4 3 4 5 2 1 3 2 3 1 4 2 2 3 4 4 5 6 6 6 5 5 5 6 5 5 6 6 6 6
14 16 17 18 17 16 16 15 13 13 13 13 12 11 10 10 11 9 10 8 9 10 11 11 9 8 8 8 7 7 7 8 9 8 7 7 8 7 7 6 6 4 4 6 5 5 5 5 5 4 3 2 2 1 2 3 4 4 3 4 1 2 4 3 2 1 2 2 2 3 4 5 6 6 6 6 6 6 5 5 5 5 6 6 6
14 13 14 15 16 16 15 16 15 14 13 14 12 13 12 12 12 12 11 11 9 11 12 11 9 9 9 8 8 7 8 8 8 7 5 5 6 7 7 8 9 6 5 6 6 5 5 4 5 5 4 3 3 2 0 2 3 4 1 1 1 2 2 4 4 1 1 1 2 3 3 5 7 7 5 6 6 5 4 4 5 5 5 5 5
15 15 14 14 12 16 16 15 14 15 15 14 15 13 12 11 11 10 7 4 1 6 9 9 10 9 9 9 7 7 8 9 10 10 9 8 7 7 8 9 8 7 6 6 5 5 5 5 6 6 5 3 3 1 1 2 2 3 4 2 2 2 2 3 6 3 1 2 2 2 3 5 7 7 5 6 6 5 5 5 5 5 5 5 5
14 15 14 15 15 14 15 14 12 12 14 16 16 14 12 12 11 10 9 9 11 9 10 10 9 9 9 8 7 9 9 8 9 11 10 9 9 8 8 8 7 6 6 5 4 5 6 6 5 4 3 2 4 2 1 2 1 2 3 3 4 3 3 3 3 2 2 2 2 3 4 5 7 6 5 5 7 5 4 5 6 6 5 5 6
16 14 14 16 17 15 14 15 14 12 13 14 16 14 14 13 14 13 11 11 11 10 9 9 10 10 9 10 9 9 9 9 10 10 9 9 8 7 7 7 6 5 4 5 5 6 6 5 4 3 2 2 1 3 4 3 2 1 1 2 2 2 2 3 2 2 3 1 2 4 5 6 8 7 6 6 7 7 5 5 6 7 7 7 7
15 13 14 14 16 17 15 15 13 12 11 12 16 16 15 15 15 15 13 13 12 12 11 11 12 10 10 11 10 7 9 9 9 9 8 8 7 7 6 5 5 5 6 5 6 6 5 4 4 3 3 2 2 4 4 4 4 3 1 1 1 1 1 1 2 2 2 4 4 0 1 4 5 4 6 8 9 8 8 7 7 8 8 8 8
13 14 14 13 13 14 14 13 13 13 12 15 14 18 16 16 15 14 14 12 13 11 10 10 11 11 11 11 11 8 7 8 8 7 6 7 7 7 8 8 7 6 4 5 5 6 6 5 5 3 2 2 3 3 4 4 3 3 4 2 2 3 3 2 2 0 2 3 4 3 5 5 3 1 2 2 6 8 7 6 6 6 7 6 7
10 10 9 9 10 11 14 15 15 13 13 15 15 17 19 15 16 16 16 14 12 11 11 10 11 11 12 11 10 7 5 5 6 6 6 7 8 9 9 9 8 7 4 4 4 5 4 3 2 2 3 4 4 5 4 3 2 2 1 3 4 4 4 3 2 2 3 4 3 5 5 6 7 4 2 1 5 7 5 4 4 4 5 5 5
7 10 10 11 11 12 14 16 17 13 13 15 15 17 18 17 17 18 18 17 15 13 11 10 10 10 11 10 9 7 6 6 6 7 6 7 7 7 7 6 6 5 5 5 4 4 3 4 4 4 5 6 6 6 5 5 4 3 2 2 3 2 1 2 2 2 2 2 3 3 4 3 6 7 1 3 4 5 4 3 3 3 4 3 3
Wind_Direction
153 138 128 97 162 138 139 132 120 115 111 110 108 106 105 101 98 93 92 90 89 88 92 90 85 82 81 82 83 86 82 72 71 63 60 64 72 72 72 71 69 70 73 73 74 77 76 74 75 74 73 72 71 70 69 69 66 65 64 64 63 63 61 59 55 55 58 58 58 61 58 56 59 59 56 52 50 48 42 36 18 46 35 41 38
153 143 137 131 87 151 139 131 120 107 106 109 105 107 107 104 98 94 89 89 93 94 88 81 82 89 88 84 80 77 80 79 72 70 71 72 73 75 77 78 77 72 72 74 76 76 77 77 75 73 71 72 71 71 71 70 68 66 62 63 62 60 58 56 53 51 49 52 58 62 59 56 59 57 56 50 47 45 40 37 30 25 39 36 40
142 143 134 116 21 185 137 118 110 108 105 105 112 114 110 104 101 99 95 90 83 81 85 90 86 82 83 78 76 80 79 84 87 83 84 86 84 81 79 77 74 73 73 76 77 78 84 82 79 75 75 75 74 72 71 70 69 66 64 61 60 58 57 54 53 49 44 39 45 83 86 67 56 56 51 47 47 45 43 42 39 34 40 40 39
137 141 139 113 131 178 125 115 111 105 109 116 114 115 108 102 100 99 98 92 90 92 95 99 93 86 84 85 85 82 85 82 85 88 87 88 90 86 82 80 80 77 77 79 78 78 79 82 81 79 78 76 75 73 72 70 69 65 62 60 57 57 57 56 53 50 43 26 7 24 48 57 57 53 51 48 47 48 47 47 44 43 38 40 44
137 144 138 136 128 102 100 101 118 118 117 118 117 111 104 106 107 106 99 95 93 98 95 85 90 97 96 98 96 90 85 87 86 86 88 88 91 93 89 84 83 81 78 76 77 77 79 79 81 82 81 79 76 75 73 71 68 66 64 62 59 58 57 54 51 48 40 30 16 33 41 49 61 51 48 49 49 50 51 48 41 40 36 28 39
136 141 146 144 133 113 112 119 128 128 127 123 117 112 107 111 110 102 99 100 98 97 101 104 95 89 89 89 92 91 88 85 85 87 86 88 93 94 94 86 79 81 80 80 81 85 84 83 86 87 85 82 80 76 74 72 69 67 65 62 61 60 56 51 44 28 3 34 46 49 49 49 52 52 45 44 49 41 47 45 42 37 35 30 22
133 138 140 141 141 116 115 123 132 131 129 124 114 110 110 105 99 106 104 99 99 96 89 102 97 92 98 91 83 86 88 90 93 91 90 84 88 91 92 91 87 83 80 79 80 82 82 86 91 94 89 86 82 79 77 75 72 68 65 63 63 60 57 50 40 18 2 46 45 50 53 52 57 56 47 49 49 45 40 40 39 39 35 30 18
131 133 136 137 129 122 116 125 132 132 129 121 121 125 120 107 96 95 97 107 105 97 97 94 94 94 93 95 92 94 94 92 92 95 97 96 89 87 89 88 88 85 80 81 82 78 80 84 91 93 91 87 82 80 79 78 75 70 67 68 66 62 57 50 31 5 25 53 50 45 52 55 59 59 56 53 50 44 36 44 41 38 33 27 21
140 135 132 128 117 95 117 135 131 135 125 123 128 128 116 106 100 98 110 108 102 106 112 98 97 97 97 96 105 100 97 99 98 91 93 96 91 91 96 99 93 88 91 88 84 86 85 85 88 87 87 85 82 79 79 77 73 70 68 69 67 61 57 46 17 346 62 54 54 51 37 42 50 49 54 52 51 51 41 32 42 32 34 27 24
136 137 130 135 126 106 115 123 133 131 124 127 124 119 114 106 105 105 110 115 109 114 107 102 101 102 99 101 96 98 101 96 87 87 84 88 97 95 95 96 93 92 86 85 87 85 84 84 83 83 85 84 83 80 79 76 72 68 67 65 63 58 45 24 326 49 51 51 55 58 41 13 43 41 40 35 67 56 30 35 31 35 31 24 23
143 136 135 131 123 113 128 130 129 127 123 126 123 118 116 115 112 107 104 108 116 114 109 107 106 102 101 99 98 101 98 98 96 96 94 91 87 86 83 80 81 87 86 83 83 85 87 86 85 86 85 85 82 81 80 77 72 69 65 62 58 49 30 351 8 51 52 50 44 47 62 52 57 38 38 36 62 63 37 31 33 25 27 23 22
142 138 139 127 114 116 130 128 131 128 126 122 121 120 116 113 112 118 116 110 112 109 110 112 110 106 108 105 103 94 90 88 89 93 94 93 91 91 92 90 86 89 83 75 78 88 88 86 86 85 84 84 83 80 79 75 70 66 62 58 52 45 25 344 39 48 48 50 51 38 42 41 33 35 36 43 38 34 35 24 26 24 24 20 18
144 142 138 139 135 109 116 123 131 132 131 127 121 120 117 114 114 117 122 129 120 108 106 99 101 109 110 105 103 99 98 96 93 89 87 87 84 86 84 84 85 81 81 78 77 76 82 85 84 84 84 85 84 78 75 71 68 62 56 52 45 34 22 359 46 43 45 45 42 38 35 43 39 19 26 46 29 18 33 30 23 22 19 20 17
147 146 145 144 123 108 107 114 130 128 131 123 124 123 121 119 120 129 131 113 107 105 108 112 114 116 110 107 104 104 104 97 93 90 95 100 93 88 85 88 91 88 83 76 74 77 80 82 83 83 83 80 77 73 69 68 62 56 51 47 40 19 337 121 35 45 44 39 38 29 31 35 25 357 26 21 12 12 62 30 18 24 16 13 12
149 150 149 145 137 133 103 118 125 123 124 123 124 122 119 118 122 125 104 105 97 112 120 111 116 112 114 113 108 104 101 97 96 93 94 88 90 96 92 87 83 84 83 81 80 77 80 84 82 79 78 71 67 64 62 59 56 51 45 40 35 19 353 25 35 39 39 30 31 23 27 29 5 358 12 2 10 8 65 21 358 19 28 0 5
150 146 151 148 144 135 140 117 114 107 105 115 118 114 111 101 94 107 110 96 81 73 103 107 109 112 108 110 107 105 101 99 98 97 81 77 81 82 85 87 90 92 89 85 79 76 79 78 79 78 75 72 66 63 58 55 50 45 41 36 24 19 9 324 43 27 32 23 22 16 22 28 7 344 351 349 1 11 24 201 346 11 6 340 355
148 152 152 150 148 146 142 146 117 104 95 104 107 107 114 113 112 108 102 90 89 91 98 97 97 108 111 106 105 103 100 98 91 81 75 77 75 79 83 82 84 83 84 83 81 80 76 74 73 72 71 69 67 63 62 57 50 46 40 27 23 23 5 328 35 30 13 19 16 9 14 20 350 337 342 344 347 3 1 2 9 340 346 311 353
152 155 153 155 154 151 145 141 143 146 127 113 107 105 104 109 106 102 98 90 91 95 91 91 96 103 94 83 85 89 92 90 86 79 73 68 66 70 74 78 82 81 82 84 82 78 75 72 71 69 67 64 64 64 61 59 53 46 35 20 17 6 356 303 24 13 5 8 13 8 17 11 337 335 336 337 340 350 348 341 341 340 336 327 335
159 160 157 161 158 155 151 153 155 150 146 143 136 109 103 100 100 98 99 93 87 93 98 101 103 99 91 91 87 83 81 79 78 73 63 61 67 75 69 84 87 88 85 85 83 79 76 75 74 68 65 63 59 56 56 58 56 45 36 26 357 330 271 295 18 3 349 17 0 4 22 348 334 334 332 334 336 339 341 339 339 339 341 337 329
168 167 161 164 165 164 161 159 156 158 159 151 141 131 107 103 100 100 101 104 99 91 95 99 98 97 93 99 103 107 100 83 78 74 55 50 40 55 65 75 80 81 80 81 80 75 73 76 74 74 69 66 65 61 58 57 52 46 39 18 348 285 330 9 346 351 350 7 349 357 24 337 333 331 327 330 331 335 337 342 340 342 342 340 334
175 176 172 167 170 170 170 166 162 160 157 153 147 138 117 116 107 100 104 109 111 106 104 111 111 108 111 111 134 126 114 110 100 83 75 62 47 44 59 65 65 69 73 70 64 63 67 72 73 75 77 77 86 95 75 56 56 45 33 357 291 300 13 354 341 351 355 347 344 12 6 329 329 331 330 327 331 333 338 337 337 336 334 335 333
178 181 183 175 175 176 177 172 166 163 157 152 148 141 146 153 141 138 133 127 122 130 144 130 121 118 119 151 139 131 118 113 104 107 97 90 64 45 56 66 66 59 55 53 53 57 63 66 74 74 77 76 267 172 124 133 116 46 0 287 273 22 14 357 355 358 354 357 340 16 345 331 329 329 329 327 327 331 336 336 333 331 330 329 329
181 185 187 184 182 180 184 176 171 165 158 151 150 151 157 156 155 150 136 135 134 150 142 141 149 132 128 129 139 118 106 116 88 64 87 67 69 51 70 72 69 65 65 59 54 55 64 66 63 67 73 232 248 38 32 8 101 181 222 244 15 11 1 357 350 356 352 6 333 23 337 331 330 328 327 328 329 329 330 329 328 327 325 325 326
182 185 182 188 189 187 188 186 172 168 164 160 156 161 163 162 159 158 156 157 155 151 143 152 153 144 143 150 120 105 106 104 115 127 156 152 113 105 84 98 101 79 31 171 153 75 108 116 72 278 208 21 29 23 11 17 7 8 15 2 1 11 355 350 347 342 343 359 347 11 332 330 330 331 331 331 331 333 332 329 328 325 323 324 324
183 182 185 190 192 189 187 191 178 176 176 165 165 171 170 166 158 164 161 157 151 146 149 156 160 157 147 140 111 120 133 129 143 140 128 106 122 133 141 68 54 83 345 30 312 114 232 81 135 264 41 30 27 27 10 358 4 348 359 8 350 346 342 341 331 330 333 339 351 8 334 331 332 333 334 333 332 333 332 330 328 327 325 325 324
168 186 194 193 193 192 187 191 188 187 184 180 181 166 173 171 164 163 169 167 157 150 153 159 156 168 166 141 146 146 150 144 155 147 138 135 175 113 103 90 80 76 243 42 41 335 19 81 57 15 22 24 19 10 359 355 357 351 340 346 343 340 341 338 341 342 338 332 352 20 338 334 332 333 332 333 336 335 333 331 330 327 327 327 324
177 188 185 191 190 195 193 184 194 191 192 191 184 173 184 178 173 170 175 170 164 163 168 163 159 159 166 166 175 164 164 163 153 168 154 218 159 164 102 97 83 85 70 129 126 225 339 34 17 14 8 8 1 352 327 333 340 339 337 339 343 337 338 343 345 340 334 333 341 54 4 341 335 332 334 338 339 340 339 339 338 335 333 331 331
180 184 180 181 187 193 193 191 191 192 193 194 192 188 184 183 181 167 198 158 175 180 170 171 151 169 176 170 179 167 173 169 172 177 167 210 170 29 60 162 172 135 124 295 315 29 344 11 357 4 350 353 353 327 327 332 342 345 342 337 340 337 338 334 332 336 333 329 332 56 14 347 339 337 343 346 349 353 353 352 351 350 346 345 344
197 193 181 180 181 186 189 192 190 195 197 197 201 198 194 193 182 189 192 160 196 188 173 169 182 173 169 182 193 182 182 186 179 163 168 183 155 211 236 225 238 167 209 217 274 288 305 351 356 351 348 338 330 326 335 327 322 332 335 338 336 340 335 328 333 334 331 328 340 36 27 354 345 347 351 352 354 359 358 359 358 357 355 353 353
200 198 193 185 177 180 188 189 190 194 198 197 203 201 200 198 194 193 192 180 198 200 175 183 186 175 179 197 205 201 189 183 163 160 180 162 175 193 221 220 239 200 238 254 240 293 325 326 331 320 320 320 319 332 325 318 321 328 336 340 341 339 333 329 333 337 335 340 350 1 49 356 354 355 355 354 358 1 2 2 2 360 356 355 354
200 199 199 193 178 178 187 190 190 191 194 199 200 201 199 200 195 193 192 197 197 199 200 194 186 189 190 190 209 218 201 191 171 169 178 173 181 195 207 195 225 204 234 270 243 286 309 315 327 320 318 315 312 318 311 314 320 328 343 338 336 331 332 332 336 339 343 356 355 3 2 36 4 359 354 358 2 3 3 4 6 4 2 1 358
206 202 197 194 187 189 187 189 189 189 196 198 195 200 195 197 191 196 195 196 193 203 204 200 195 197 190 188 208 203 208 189 193 181 196 183 187 195 202 215 232 206 227 279 279 259 297 305 279 279 286 304 306 308 315 311 318 326 336 330 330 328 330 336 335 350 353 355 7 6 3 4 78 19 360 3 7 9 5 6 8 7 5 5 2
210 208 197 188 190 191 193 190 190 187 201 199 191 195 189 188 189 193 193 188 191 204 205 203 201 197 191 195 204 203 204 204 187 192 194 201 194 206 202 196 227 280 280 241 250 243 250 258 289 249 289 304 306 308 309 307 317 325 326 320 316 321 327 330 351 356 6 7 10 7 1 9 8 102 79 15 21 20 11 10 10 8 8 7 4
207 208 204 198 191 188 192 193 195 195 203 204 194 190 188 186 188 187 184 184 191 195 202 206 201 198 194 195 202 205 210 208 200 189 200 196 195 200 216 221 211 214 265 250 255 273 281 282 297 304 313 311 313 312 318 323 323 322 320 325 312 324 331 346 1 16 7 12 7 9 12 13 10 10 2 95 72 37 17 11 11 10 10 9 6
206 207 206 204 197 193 186 193 195 200 200 208 203 197 189 190 190 187 183 189 193 199 199 202 200 202 197 196 203 204 208 211 204 199 197 202 214 234 245 253 259 276 287 278 268 269 273 288 306 309 314 312 319 331 333 328 325 326 327 324 324 331 329 352 11 27 12 358 10 19 19 20 12 8 1 6 53 64 25 12 8 10 12 10 8
208 206 207 208 206 203 192 199 195 200 202 207 206 200 196 198 198 192 188 190 198 203 201 199 200 201 200 201 197 203 206 202 201 212 210 223 246 243 245 227 199 247 287 279 246 256 270 288 298 307 319 325 332 326 323 323 324 322 322 322 322 329 338 2 22 33 4 1 28 29 22 22 16 6 359 8 3 30 49 12 3 9 15 9 7
207 206 206 208 213 208 201 208 202 199 204 205 208 205 202 202 204 195 198 186 203 206 204 196 195 200 203 206 197 202 201 201 202 203 225 221 233 240 245 216 216 261 272 256 251 254 283 285 298 301 304 316 319 317 318 334 326 322 320 319 323 329 345 22 41 20 9 29 38 25 21 23 16 3 10 6 3 360 33 30 350 360 27 12 10
209 208 207 207 211 214 211 212 211 205 204 206 207 207 206 208 209 203 197 201 204 214 209 196 200 205 203 207 197 198 199 194 198 206 221 226 229 239 232 222 222 257 248 247 251 272 281 287 295 292 300 305 314 338 331 320 316 319 322 319 322 330 3 45 75 17 32 46 33 19 20 22 18 10 10 3 4 6 1 8 8 25 65 21 14
211 210 209 207 208 213 215 213 216 210 206 207 207 210 212 214 218 218 214 218 219 221 221 214 209 206 207 206 197 204 199 194 193 192 221 219 221 228 233 225 234 254 252 248 249 243 268 267 281 290 261 295 315 323 285 306 312 315 314 318 326 342 34 83 111 30 48 55 22 16 26 22 16 13 6 1 7 3 6 3 6 7 27 30 16
210 210 211 210 209 210 211 216 215 215 207 205 203 206 207 206 206 206 210 213 216 213 217 224 217 212 207 201 197 206 207 203 198 199 206 226 232 234 232 227 233 248 239 248 247 229 244 252 264 292 305 313 153 290 290 303 309 306 312 319 334 352 84 131 122 31 51 65 24 23 26 22 17 8 3 357 5 4 6 6 9 10 9 14 20
213 212 211 212 212 210 207 213 211 211 211 204 202 197 201 203 207 204 208 205 212 217 216 216 220 216 205 202 197 204 207 203 204 198 206 226 233 234 230 232 236 237 242 249 264 272 276 286 296 296 269 261 150 237 270 302 309 321 327 286 315 80 81 153 150 27 56 75 26 23 24 20 16 3 355 350 357 6 4 8 10 11 10 7 10
216 216 215 213 213 211 210 210 207 207 210 208 202 198 201 199 193 200 199 208 211 217 224 222 223 215 208 204 201 202 204 199 202 208 208 226 228 230 226 229 230 231 238 257 263 260 244 233 227 211 220 235 206 342 9 307 305 326 320 326 170 136 78 163 141 25 63 81 30 33 16 18 13 356 347 346 -0 4 7 9 9 9 11 8 8
211 210 216 219 216 213 214 211 207 205 208 207 204 204 203 204 204 204 199 207 218 224 225 225 209 206 200 198 197 199 199 202 204 210 216 212 223 219 223 229 220 204 222 241 239 227 223 212 201 204 157 208 154 25 354 355 315 310 251 248 117 199 159 165 194 63 90 78 50 41 17 5 6 357 345 347 357 2 6 7 4 7 7 4 2
215 212 207 207 217 217 214 212 211 209 208 207 205 207 204 205 210 217 215 217 223 221 227 225 217 215 212 193 196 195 198 204 202 203 212 211 211 224 228 231 236 221 228 243 227 234 219 198 187 188 181 182 211 172 15 354 331 323 252 356 37 287 172 125 6 125 133 81 78 55 31 10 1 0 352 353 350 351 356 4 1 4 1 357 354
215 213 206 202 209 209 209 206 206 207 209 205 201 204 205 208 213 216 220 212 33 223 221 224 224 221 221 213 198 188 202 212 212 209 211 209 205 223 239 240 240 234 231 233 233 223 204 189 175 166 192 251 243 215 97 19 10 341 328 268 193 198 53 359 326 150 164 107 104 53 70 25 360 358 356 346 338 346 349 355 360 356 354 352 356
213 212 209 207 209 211 207 202 201 203 205 206 203 199 201 199 198 191 194 204 216 212 210 207 203 204 204 206 204 193 196 203 218 223 217 216 224 231 231 235 235 227 212 210 181 165 167 165 173 175 188 245 297 218 180 93 64 24 21 31 6 357 0 16 309 65 14 103 32 45 55 32 1 348 353 344 338 341 358 350 350 351 345 346 350
214 207 209 212 210 211 206 201 202 204 201 198 199 196 201 200 197 199 201 206 214 219 215 213 215 209 206 206 204 196 192 200 213 217 222 224 226 221 220 220 215 205 180 166 161 164 160 159 166 197 185 153 188 235 211 162 120 93 45 18 19 14 347 301 8 313 336 81 39 12 5 9 359 346 352 350 342 340 351 350 347 351 353 359 360
207 200 208 209 207 207 204 203 204 204 196 188 195 201 202 204 206 208 210 214 212 217 209 216 220 213 205 206 205 195 201 215 211 210 216 213 207 196 186 181 169 164 157 162 157 158 153 148 174 158 145 162 216 222 202 186 222 148 181 172 138 193 219 253 357 347 310 301 316 0 149 354 344 346 349 346 341 339 342 347 351 351 352 354 358
203 205 208 205 204 207 209 208 209 206 204 194 194 204 207 207 205 207 212 216 219 221 218 215 214 209 201 204 201 189 184 203 210 196 187 199 189 182 168 159 150 144 154 153 152 165 172 169 174 185 221 208 203 197 181 192 215 152 153 151 166 149 133 127 113 10 257 278 290 320 321 327 296 205 352 327 327 323 328 334 342 342 342 344 354
202 208 209 207 206 205 207 206 209 208 206 200 196 202 209 208 208 208 210 212 212 216 215 209 210 208 208 194 188 182 173 166 178 181 182 189 184 173 168 164 151 149 152 138 139 143 145 144 178 208 207 186 174 180 186 159 134 105 185 156 159 146 155 158 178 207 220 228 281 304 326 329 334 332 302 338 313 303 308 312 319 330 330 340 352
197 210 213 210 210 210 212 211 212 209 207 204 198 200 209 211 213 211 208 208 207 210 203 200 197 197 204 188 178 176 167 170 167 176 176 179 170 161 160 150 137 141 144 149 163 158 129 136 130 138 164 168 167 142 135 136 134 137 157 178 166 184 162 172 162 190 230 224 270 288 315 317 305 308 337 307 296 294 289 282 296 322 334 342 351